Location: Kitt Peak
(31.9633°N, 111.6000°W)
Time: 23:53:27
(UTC-07:00)

Amateur Radio Satellites - All Passes

Search period start: 23 June 2017 23:23
Search period end: 24 June 2017 23:23
Location: Kitt Peak, 31.9633°N, 111.6000°W

Satellite Date Start Highest point End Downlink Frequencies (MHz)
Time Altitude Azimuth
PCSat 23 Jun 23:23:46 23:26:47 15° 256° (WSW) 23:29:47 145.827
ESTCUBE 1 23 Jun 23:31:10 23:35:36 59° 259° (W) 23:40:03 437.505/2401.250
POLYITAN 1 23 Jun 23:31:43 23:35:09 23° 96° (E) 23:38:35 437.675
AIST 2D 23 Jun 23:34:29 23:37:57 65° 100° (E) 23:41:23 435.315
RS-15 23 Jun 23:39:00 23:47:53 22° 323° (NW) 23:56:52 29.354- 29.394
VELOX 1 23 Jun 23:41:31 23:45:30 36° 73° (ENE) 23:49:30 145.980
QB50P2 23 Jun 23:42:01 23:45:57 35° 98° (E) 23:49:50 145.880/145.840
SO-50 23 Jun 23:42:47 23:47:17 61° 61° (ENE) 23:51:47 436.795
FO-29 23 Jun 23:54:49 00:00:05 20° 297° (WNW) 00:05:22 435.910
YUBILEINY 23 Jun 23:57:36 00:03:04 18° 291° (WNW) 00:08:36 435.215
50 SAT 24 Jun 00:01:49 00:04:29 22° 72° (ENE) 00:07:09 437.505
EO-79 24 Jun 00:06:57 00:11:13 67° 101° (E) 00:15:26 145.935-145.965
BUGSAT 1 24 Jun 00:07:31 00:09:29 13° 94° (E) 00:11:27 437.445
DX 1 24 Jun 00:08:00 00:11:19 22° 70° (ENE) 00:14:38 434.975-435.025
SPROUT 24 Jun 00:16:37 00:20:51 75° 257° (WSW) 00:25:08 437.525
DUCHIFAT 1 24 Jun 00:23:15 00:27:30 85° 98° (E) 00:31:44 145.980
UKube-1 24 Jun 00:28:47 00:32:17 25° 71° (ENE) 00:35:48 .
NANOSAT C BR1 24 Jun 00:30:45 00:34:59 67° 284° (WNW) 00:39:11 145.865
POLYITAN 1 24 Jun 01:07:28 01:10:46 22° 290° (WNW) 01:14:02 437.675
QB50P2 24 Jun 01:18:55 01:21:22 15° 292° (WNW) 01:23:50 145.880/145.840
VELOX 1 24 Jun 01:19:31 01:22:01 15° 265° (W) 01:24:31 145.980
50 SAT 24 Jun 01:35:33 01:37:13 13° 265° (W) 01:38:53 437.505
BUGSAT 1 24 Jun 01:40:59 01:44:57 38° 286° (WNW) 01:48:51 437.445
Oscar 19 24 Jun 01:41:06 01:46:09 58° 101° (E) 01:51:11 437.125/150
DX 1 24 Jun 01:43:49 01:47:19 24° 263° (W) 01:50:51 434.975-435.025
UKube-1 24 Jun 02:04:59 02:08:12 21° 264° (W) 02:11:27 .
Gurwin Techsat 1B 24 Jun 02:19:58 02:25:19 86° 103° (ESE) 02:30:38 435.225
MOZHAYETS 4 24 Jun 02:35:55 02:40:07 35° 73° (ENE) 02:44:20
ITUPSAT 1 24 Jun 02:37:47 02:42:31 63° 75° (ENE) 02:47:17 437.325
BEESAT 24 Jun 02:48:57 02:53:43 86° 80° (E) 02:58:32 436.000
CUBESAT XI-V 24 Jun 03:13:55 03:16:34 15° 68° (ENE) 03:19:13 437.345
Oscar 19 24 Jun 03:22:31 03:24:55 13° 295° (WNW) 03:27:19 437.125/150
AO-7 24 Jun 03:24:11 03:32:05 44° 101° (ESE) 03:39:55 .
ITAMSAT 1 24 Jun 03:53:46 03:59:01 84° 103° (ESE) 04:04:15 435.822/435.867
MOZHAYETS 4 24 Jun 04:14:15 04:17:18 17° 265° (W) 04:20:21
RS-15 24 Jun 04:18:42 04:27:36 22° 37° (NE) 04:36:09 29.354- 29.394
KKS-1 24 Jun 04:21:50 04:26:12 64° 75° (ENE) 04:30:35 437.445
CUBESAT XI-V 24 Jun 04:49:09 04:53:32 41° 261° (W) 04:57:56 437.345
STARS 24 Jun 04:56:22 05:00:40 63° 76° (ENE) 05:05:01 437.465
NO-84 24 Jun 05:00:44 05:04:17 24° 40° (NE) 05:07:43 435.350 FM
AO-7 24 Jun 05:17:12 05:24:34 36° 296° (WNW) 05:31:55 .
AO-85 24 Jun 05:18:19 05:21:47 24° 56° (ENE) 05:25:25 145.980
LilacSat-2 24 Jun 05:31:41 05:33:17 12° 94° (E) 05:34:54 437.200
XW-2B 24 Jun 05:34:25 05:36:02 12° 94° (E) 05:37:37 145.730 - 145.750
XW-2C 24 Jun 05:48:43 05:51:32 20° 96° (E) 05:54:21 145.795 - 145.815
DOVE 4 24 Jun 05:51:01 05:55:56 64° 100° (E) 06:01:05 437.250
KAITUO 1B 24 Jun 06:06:42 06:09:50 26° 97° (E) 06:12:57 145.475/437.950
BEESAT 3 24 Jun 06:18:06 06:22:02 56° 60° (ENE) 06:25:53 437.485
STRAND 1 24 Jun 06:21:33 06:25:46 27° 70° (ENE) 06:30:01 437.568
CUTE-I 24 Jun 06:24:48 06:30:02 51° 100° (E) 06:35:14 437.470
RS-15 24 Jun 06:30:10 06:42:18 80° 62° (ENE) 06:53:43 29.354- 29.394
NO-84 24 Jun 06:37:58 06:41:57 37° 236° (SW) 06:45:42 435.350 FM
NUDT-PHONESAT 24 Jun 06:44:18 06:48:00 87° 288° (WNW) 06:51:40 437.300
XW-2F 24 Jun 06:54:54 06:58:29 45° 284° (WNW) 07:02:03 145.980 - 146.000
XW-2D 24 Jun 06:57:49 07:01:19 38° 285° (WNW) 07:04:48 145.860 - 145.880
AO-85 24 Jun 06:58:35 07:02:04 24° 248° (WSW) 07:05:44 145.980
LilacSat-2 24 Jun 07:04:16 07:07:36 30° 286° (WNW) 07:10:56 437.200
HO-68 24 Jun 07:06:19 07:12:46 35° 99° (E) 07:19:10 435.675
XW-2B 24 Jun 07:06:56 07:10:15 30° 287° (WNW) 07:13:32 145.730 - 145.750
SEEDS 24 Jun 07:07:59 07:10:34 16° 94° (E) 07:13:08 437.485
BEESAT 2 24 Jun 07:13:17 07:17:21 83° 61° (ENE) 07:21:21 435.950
CUBEBUG 2 24 Jun 07:17:02 07:20:14 18° 94° (E) 07:23:23 437.445
CUTE 1.7 + AOD 2 24 Jun 07:21:13 07:25:11 40° 99° (E) 07:29:07 437.475
XW-2C 24 Jun 07:22:52 07:25:34 19° 289° (WNW) 07:28:14 145.795 - 145.815
DOVE 4 24 Jun 07:31:13 07:33:06 12° 293° (WNW) 07:35:00 437.250
KAITUO 1B 24 Jun 07:41:32 07:43:34 14° 290° (WNW) 07:45:35 145.475/437.950
ZACube-1 24 Jun 07:53:19 07:55:28 13° 93° (E) 07:57:34 437.345
UWE-3 24 Jun 07:53:27 07:57:19 27° 96° (E) 08:01:05 435.000/436.395/437.385
XW-2A 24 Jun 07:58:40 08:02:04 80° 282° (WNW) 08:05:26 145.665 - 145.685
STRAND 1 24 Jun 08:00:25 08:04:47 28° 263° (W) 08:09:11 437.568
O/OREOS (USA 219) 24 Jun 08:02:31 08:06:59 74° 253° (WSW) 08:11:25 437.305
AAUSAT CUBESAT 2 24 Jun 08:02:39 08:06:23 33° 98° (E) 08:10:05 437.432
Tancredo 1 24 Jun 08:04:47 08:07:41 42° 318° (NW) 08:10:36 437.200
ISS 24 Jun 08:05:33 08:08:47 70° 133° (SE) 08:12:02 437.550
CUTE-I 24 Jun 08:06:19 08:09:36 17° 294° (WNW) 08:12:53 437.470
YUBILEINY 24 Jun 08:13:51 08:21:23 30° 75° (ENE) 08:28:48 435.215
FO-29 24 Jun 08:17:25 08:21:14 18° 62° (ENE) 08:25:18 435.910
TIGRISAT 24 Jun 08:34:25 08:35:53 11° 66° (ENE) 08:37:22 435.000
SEEDS 24 Jun 08:42:38 08:46:14 30° 287° (WNW) 08:49:51 437.485
M-CUBED/EXP-1 PRIME 24 Jun 08:43:09 08:46:19 38° 71° (ENE) 08:49:24 437.505
RS-15 24 Jun 08:45:06 08:53:14 22° 259° (W) 09:01:08 29.354- 29.394
PRISM 24 Jun 08:51:52 08:54:42 19° 70° (ENE) 08:57:33 437.425
CUBEBUG 2 24 Jun 08:52:40 08:56:52 33° 288° (WNW) 09:00:59 437.445
AO-73 24 Jun 08:53:22 08:57:47 67° 101° (E) 09:02:03 145.935
HO-68 24 Jun 08:53:58 09:00:21 36° 293° (WNW) 09:06:43 435.675
CUTE 1.7 + AOD 2 24 Jun 08:58:46 09:00:36 13° 292° (WNW) 09:02:26 437.475
UNISAT 6 24 Jun 09:13:03 09:17:12 35° 72° (ENE) 09:21:26 437.425
Oscar 11 24 Jun 09:22:20 09:26:38 70° 283° (WNW) 09:30:53 .
ZACube-1 24 Jun 09:27:43 09:31:53 40° 286° (WNW) 09:35:56 437.345
EO-88 24 Jun 09:29:46 09:32:13 17° 95° (E) 09:34:40 145.990 - 145.960
UWE-3 24 Jun 09:30:05 09:33:33 22° 290° (WNW) 09:36:57 435.000/436.395/437.385
AAUSAT CUBESAT 2 24 Jun 09:39:14 09:41:30 15° 291° (WNW) 09:43:46 437.432
DELFI C3 24 Jun 09:42:31 09:46:17 43° 100° (E) 09:50:03 145.870
ISS 24 Jun 09:44:21 09:45:35 12° 329° (NNW) 09:46:51 437.550
FO-29 24 Jun 09:59:50 10:05:29 60° 260° (W) 10:11:55 435.910
AIST 2D 24 Jun 10:06:11 10:07:18 11° 70° (ENE) 10:08:26 435.315
TIGRISAT 24 Jun 10:07:32 10:11:59 56° 260° (W) 10:16:33 435.000
YUBILEINY 24 Jun 10:09:58 10:18:18 48° 271° (W) 10:26:34 435.215
PRISM 24 Jun 10:26:26 10:29:47 25° 263° (W) 10:33:07 437.425
QB50P2 24 Jun 10:31:03 10:33:25 15° 68° (ENE) 10:35:48 145.880/145.840
PCSat 24 Jun 10:35:00 10:37:36 14° 103° (ESE) 10:40:12 145.827
UNISAT 6 24 Jun 10:51:02 10:53:57 17° 266° (W) 10:56:55 437.425
EO-79 24 Jun 10:54:47 10:58:17 26° 71° (ENE) 11:01:49 145.935-145.965
EO-88 24 Jun 11:03:02 11:05:46 20° 288° (WNW) 11:08:31 145.990 - 145.960
DUCHIFAT 1 24 Jun 11:10:12 11:13:54 31° 73° (ENE) 11:17:39 145.980
NANOSAT C BR1 24 Jun 11:17:38 11:21:38 44° 74° (ENE) 11:25:40 145.865
DELFI C3 24 Jun 11:20:09 11:20:36 10° 292° (WNW) 11:21:03 145.870
JUGNU 24 Jun 11:26:18 11:27:11 10° 161° (SSE) 11:28:04 437.505
ESTCUBE 1 24 Jun 11:28:27 11:32:40 40° 99° (E) 11:36:53 437.505/2401.250
LO-87 24 Jun 11:29:22 11:33:01 88° 112° (ESE) 11:36:38 145.935 - 145.965
AIST 2D 24 Jun 11:36:59 11:40:10 30° 262° (W) 11:43:20 435.315
POLYITAN 1 24 Jun 11:53:53 11:58:03 55° 260° (W) 12:02:15 437.675
QB50P2 24 Jun 12:04:57 12:08:51 36° 262° (W) 12:12:47 145.880/145.840
SPROUT 24 Jun 12:07:31 12:11:07 26° 97° (E) 12:14:42 437.525
PCSat 24 Jun 12:15:04 12:20:23 60° 297° (WNW) 12:25:46 145.827
BUGSAT 1 24 Jun 12:25:06 12:29:10 72° 76° (ENE) 12:33:18 437.445
EO-79 24 Jun 12:30:52 12:33:57 20° 264° (W) 12:37:05 145.935-145.965
DUCHIFAT 1 24 Jun 12:46:58 12:49:35 16° 265° (W) 12:52:12 145.980
Oscar 19 24 Jun 12:53:01 12:58:00 51° 74° (ENE) 13:02:59 437.125/150
NANOSAT C BR1 24 Jun 12:56:14 12:57:30 11° 267° (W) 12:58:46 145.865
50 SAT 24 Jun 13:00:42 13:03:59 45° 100° (E) 13:07:15 437.505
ESTCUBE 1 24 Jun 13:06:40 13:09:05 15° 292° (WNW) 13:11:30 437.505/2401.250
JUGNU 24 Jun 13:11:16 13:15:33 20° 170° (S) 13:19:51 437.505
VELOX 1 24 Jun 13:12:03 13:16:23 55° 285° (WNW) 13:20:43 145.980
DX 1 24 Jun 13:35:38 13:40:00 82° 101° (E) 13:44:23 434.975-435.025
Gurwin Techsat 1B 24 Jun 13:36:03 13:41:21 85° 76° (ENE) 13:46:41 435.225
SPROUT 24 Jun 13:43:38 13:46:49 20° 290° (WNW) 13:49:58 437.525
SO-50 24 Jun 13:52:04 13:56:35 63° 116° (ESE) 14:01:05 436.795
UKube-1 24 Jun 13:55:22 13:59:42 88° 283° (WNW) 14:04:01 .
AO-7 24 Jun 14:17:58 14:25:29 40° 65° (ENE) 14:33:03 .
Tancredo 1 24 Jun 14:33:24 14:35:22 16° 35° (NE) 14:37:20 437.200
Oscar 19 24 Jun 14:34:49 14:37:31 14° 266° (W) 14:40:14 437.125/150
MOZHAYETS 4 24 Jun 14:37:51 14:39:26 12° 93° (E) 14:41:01
ISS 24 Jun 14:39:03 14:39:54 11° 30° (NNE) 14:40:44 437.550
ITUPSAT 1 24 Jun 14:43:48 14:47:38 24° 97° (E) 14:51:26 437.325
BEESAT 24 Jun 14:54:15 14:58:31 32° 98° (E) 15:02:44 436.000
SRMSAT 24 Jun 14:54:51 14:58:04 15° 165° (SSE) 15:01:16 437.500
JUGNU 24 Jun 14:59:11 15:04:01 25° 180° (S) 15:08:50 437.505
ITAMSAT 1 24 Jun 15:06:43 15:11:53 79° 76° (ENE) 15:17:06 435.822/435.867
SO-50 24 Jun 15:35:30 15:37:25 12° 311° (NW) 15:39:20 436.795
Tancredo 1 24 Jun 16:08:15 16:11:02 33° 229° (SW) 16:13:48 437.200
AO-7 24 Jun 16:10:33 16:18:06 39° 260° (W) 16:25:45 .
MOZHAYETS 4 24 Jun 16:12:23 16:16:48 49° 286° (WNW) 16:21:11
ISS 24 Jun 16:13:27 16:16:45 83° 225° (SW) 16:20:02 437.550
KKS-1 24 Jun 16:18:32 16:21:36 18° 95° (E) 16:24:39 437.445
ITUPSAT 1 24 Jun 16:21:18 16:25:21 28° 290° (WNW) 16:29:22 437.325
BEESAT 24 Jun 16:32:30 16:36:01 21° 291° (WNW) 16:39:32 436.000
SRMSAT 24 Jun 16:42:00 16:46:38 23° 174° (S) 16:51:15 437.500
JUGNU 24 Jun 16:48:06 16:52:28 21° 190° (S) 16:56:50 437.505
CUBESAT XI-V 24 Jun 16:50:07 16:54:42 69° 101° (ESE) 16:59:15 437.345
STARS 24 Jun 16:51:35 16:54:28 17° 95° (E) 16:57:20 437.465
DOVE 4 24 Jun 16:52:35 16:56:13 31° 73° (ENE) 16:59:56 437.250
NUDT-PHONESAT 24 Jun 17:19:21 17:22:05 19° 72° (ENE) 17:24:50 437.300
XW-2F 24 Jun 17:30:36 17:34:07 36° 74° (ENE) 17:37:39 145.980 - 146.000
HO-68 24 Jun 17:32:08 17:36:13 16° 60° (ENE) 17:40:19 435.675
XW-2D 24 Jun 17:33:40 17:37:19 43° 75° (ENE) 17:40:59 145.860 - 145.880
LilacSat-2 24 Jun 17:40:27 17:44:15 57° 76° (ENE) 17:48:03 437.200
CUTE-I 24 Jun 17:41:45 17:46:52 52° 73° (ENE) 17:52:01 437.470
XW-2B 24 Jun 17:42:31 17:46:16 56° 76° (ENE) 17:50:02 145.730 - 145.750
KKS-1 24 Jun 17:54:11 17:58:08 32° 288° (WNW) 18:02:06 437.445
XW-2C 24 Jun 17:57:50 18:01:41 85° 260° (W) 18:05:33 145.795 - 145.815
CUTE 1.7 + AOD 2 24 Jun 18:10:07 18:12:44 16° 69° (ENE) 18:15:21 437.475
KAITUO 1B 24 Jun 18:14:43 18:18:29 65° 259° (W) 18:22:16 145.475/437.950
XW-2A 24 Jun 18:26:23 18:28:17 14° 71° (ENE) 18:30:12 145.665 - 145.685
STARS 24 Jun 18:26:50 18:30:48 33° 288° (WNW) 18:34:46 437.465
SRMSAT 24 Jun 18:30:32 18:35:15 24° 184° (S) 18:39:56 437.500
DOVE 4 24 Jun 18:31:42 18:33:59 14° 266° (W) 18:36:19 437.250
STRAND 1 24 Jun 18:38:18 18:40:38 13° 93° (E) 18:42:57 437.568
JUGNU 24 Jun 18:39:15 18:40:51 11° 198° (SSW) 18:42:26 437.505
RS-15 24 Jun 18:39:53 18:46:23 16° 98° (E) 18:52:58 29.354- 29.394
UWE-3 24 Jun 18:46:54 18:49:02 13° 67° (ENE) 18:51:10 435.000/436.395/437.385
AAUSAT CUBESAT 2 24 Jun 18:49:51 18:51:29 12° 68° (ENE) 18:53:07 437.432
NUDT-PHONESAT 24 Jun 18:53:01 18:55:49 20° 264° (W) 18:58:38 437.300
XW-2F 24 Jun 19:07:18 19:08:20 11° 267° (W) 19:09:21 145.980 - 146.000
HO-68 24 Jun 19:15:51 19:23:03 80° 255° (WSW) 19:30:18 435.675
CUTE-I 24 Jun 19:24:09 19:27:07 15° 266° (W) 19:30:07 437.470
SEEDS 24 Jun 19:28:24 19:32:37 87° 257° (WSW) 19:36:49 437.485
AO-85 24 Jun 19:28:36 19:31:57 23° 112° (ESE) 19:35:10 145.980
AO-73 24 Jun 19:43:48 19:47:40 29° 72° (ENE) 19:51:35 145.935
CUTE 1.7 + AOD 2 24 Jun 19:44:26 19:48:15 32° 262° (W) 19:52:05 437.475
CUBEBUG 2 24 Jun 19:44:41 19:49:11 74° 259° (W) 19:53:51 437.445
XW-2A 24 Jun 19:58:04 20:00:47 22° 263° (W) 20:03:31 145.665 - 145.685
BEESAT 3 24 Jun 20:03:16 20:06:44 30° 112° (ESE) 20:10:14 437.485
Oscar 11 24 Jun 20:11:54 20:16:03 45° 74° (ENE) 20:20:12 .
NO-84 24 Jun 20:14:13 20:16:41 17° 120° (ESE) 20:19:17 435.350 FM
STRAND 1 24 Jun 20:15:01 20:20:04 56° 286° (WNW) 20:25:04 437.568
ZACube-1 24 Jun 20:17:29 20:22:00 82° 75° (ENE) 20:26:36 437.345
SRMSAT 24 Jun 20:20:11 20:23:49 17° 194° (SSW) 20:27:26 437.500
UWE-3 24 Jun 20:20:35 20:24:57 48° 261° (W) 20:29:27 435.000/436.395/437.385
AAUSAT CUBESAT 2 24 Jun 20:22:38 20:26:31 40° 261° (W) 20:30:26 437.432
DELFI C3 24 Jun 20:24:48 20:26:39 13° 69° (ENE) 20:28:29 145.870
O/OREOS (USA 219) 24 Jun 20:31:32 20:35:07 23° 102° (ESE) 20:38:40 437.305
RS-15 24 Jun 20:44:57 20:56:58 84° 115° (ESE) 21:09:24 29.354- 29.394
BEESAT 2 24 Jun 20:59:44 21:03:29 45° 114° (ESE) 21:07:20 435.950
PCSat 24 Jun 21:07:56 21:12:59 38° 60° (ENE) 21:18:00 145.827
YUBILEINY 24 Jun 21:08:12 21:16:11 41° 88° (E) 21:24:13 435.215
AO-85 24 Jun 21:08:59 21:12:12 22° 304° (NW) 21:15:21 145.980
UNISAT 6 24 Jun 21:12:03 21:13:20 11° 92° (E) 21:14:37 437.425
FO-29 24 Jun 21:14:07 21:20:49 30° 95° (E) 21:27:20 435.910
AO-73 24 Jun 21:20:27 21:23:49 21° 265° (W) 21:27:13 145.935
EO-88 24 Jun 21:34:44 21:38:23 74° 77° (ENE) 21:42:04 145.990 - 145.960
BEESAT 3 24 Jun 21:41:36 21:44:18 18° 307° (NW) 21:47:04 437.485
NO-84 24 Jun 21:50:18 21:53:54 38° 316° (NW) 21:57:47 435.350 FM
Oscar 11 24 Jun 21:50:54 21:52:20 11° 267° (W) 21:53:47 .
DELFI C3 24 Jun 21:57:31 22:01:04 33° 262° (W) 22:04:38 145.870
M-CUBED/EXP-1 PRIME 24 Jun 21:58:50 22:02:38 75° 106° (ESE) 22:06:45 437.505
LO-87 24 Jun 22:01:50 22:03:59 15° 71° (ENE) 22:06:09 145.935 - 145.965
TIGRISAT 24 Jun 22:03:58 22:08:24 44° 99° (E) 22:12:43 435.000
O/OREOS (USA 219) 24 Jun 22:10:34 22:14:21 25° 295° (WNW) 22:18:07 437.305
PRISM 24 Jun 22:11:28 22:15:31 60° 101° (E) 22:19:35 437.425
ESTCUBE 1 24 Jun 22:23:44 22:27:08 21° 70° (ENE) 22:30:31 437.505/2401.250
SO-50 24 Jun 22:29:03 22:31:52 16° 51° (NE) 22:34:41 436.795
BEESAT 2 24 Jun 22:39:40 22:41:28 13° 309° (NW) 22:43:17 435.950
UNISAT 6 24 Jun 22:45:47 22:50:18 52° 285° (WNW) 22:54:42 437.425
PCSat 24 Jun 22:51:57 22:56:04 22° 254° (WSW) 23:00:10 145.827
SPROUT 24 Jun 22:58:20 22:59:32 11° 67° (ENE) 23:00:44 437.525
FO-29 24 Jun 22:58:23 23:05:51 49° 289° (WNW) 23:13:10 435.910
YUBILEINY 24 Jun 23:05:03 23:12:54 36° 284° (WNW) 23:20:49 435.215
AIST 2D 24 Jun 23:06:49 23:09:42 24° 97° (E) 23:12:33 435.315
NANOSAT C BR1 24 Jun 23:09:41 23:10:15 10° 93° (E) 23:10:47 145.865
